Location: Newark
(45.5167°N, 11.1667°E)
Time: 03:45:42
(UTC+00:00)

Courier 1B Rocket - All Passes

Search period start: 12 December 2019 00:00
Search period end: 22 December 2019 00:00
Orbit: 920 x 1202 km, 28.2° (Epoch: 10 December)

Date Brightness Start Highest point End Pass type
(mag) Time Alt. Az. Time Alt. Az. Time Alt. Az.
12 Dec - 04:26:02 10° S 04:28:12 12° SSE 04:30:21 10° SE visible
12 Dec - 06:16:24 10° SW 06:20:29 17° S 06:24:26 10° SE daylight
12 Dec - 08:09:29 10° SW 08:12:42 14° SSW 08:15:52 10° SSE daylight
13 Dec - 05:15:44 10° SSW 05:19:46 16° S 05:23:40 10° SE visible
13 Dec - 07:08:09 10° SW 07:12:04 16° S 07:15:51 10° SSE daylight
14 Dec - 04:15:19 10° SSW 04:19:03 15° SSE 04:22:40 10° SE visible
14 Dec - 06:07:03 10° SW 06:11:22 18° S 06:15:32 10° SE visible
14 Dec - 08:01:11 10° SW 08:03:34 12° SSW 08:05:55 10° S daylight
15 Dec - 03:15:19 10° S 03:18:18 13° SSE 03:21:13 10° SE visible
15 Dec - 05:06:07 10° SW 05:10:39 18° S 05:15:01 10° SE visible
15 Dec - 06:59:19 10° SW 07:02:55 15° SSW 07:06:26 10° SSE daylight
16 Dec - 02:16:46 10° SSE 02:17:33 10° SSE 02:18:21 10° SSE visible
16 Dec - 04:05:21 10° SSW 04:09:53 17° S 04:14:14 10° SE visible
16 Dec - 05:57:55 10° SW 06:02:14 17° S 06:06:25 10° SSE visible
17 Dec - 03:04:50 10° SSW 03:09:06 16° SSE 03:13:13 10° SE visible
17 Dec - 04:56:44 10° SW 05:01:30 19° S 05:06:04 10° SE visible
17 Dec - 06:50:52 10° SW 06:53:45 13° SSW 06:56:34 10° S daylight
18 Dec - 02:04:44 10° SSW 02:08:18 14° SSE 02:11:48 10° SE visible
18 Dec - 03:55:45 10° SW 04:00:43 19° S 04:05:29 10° SE visible
18 Dec - 05:49:00 10° SW 05:53:04 16° SSW 05:56:59 10° SSE visible
19 Dec - 01:05:32 10° S 01:07:31 11° SSE 01:09:29 10° SE night (unlit)
19 Dec - 02:54:58 10° SSW 02:59:54 19° S 03:04:41 10° SE visible
19 Dec - 04:47:35 10° SW 04:52:20 18° S 04:56:54 10° SSE visible
19 Dec - 06:43:42 10° SSW 06:44:31 10° SSW 06:45:20 10° SSW daylight
20 Dec - 01:54:26 10° SSW 01:59:04 17° SSE 02:03:35 10° SE visible
20 Dec - 03:46:23 10° SW 03:51:32 20° S 03:56:30 10° SE visible
20 Dec - 05:40:27 10° SW 05:43:51 14° SSW 05:47:10 10° S visible
21 Dec - 00:54:18 10° SSW 00:58:14 15° SSE 01:02:07 10° SE night (unlit)
21 Dec - 02:45:24 10° SW 02:50:42 20° S 02:55:50 10° SE visible
21 Dec - 04:38:39 10° SW 04:43:07 17° SSW 04:47:27 10° SSE visible
21 Dec - 23:54:59 10° S 23:57:26 12° SSE 23:59:52 10° SE night (unlit)
